Weather History for KLJF - October, 2011

Change the Weather History Date:

Monday, October 3, 2011

  Actual Average Record
Temperature  
Mean Temperature 61 °F -  
Max Temperature 78 °F 67 °F 86 °F (1992)
Min Temperature 44 °F 41 °F 21 °F (1989)
Degree Days  
Heating Degree Days 4    
Growing Degree Days 11 (Base 50)    
Moisture  
Dew Point 39 °F    
Average Humidity 48    
Maximum Humidity 82    
Minimum Humidity 20    
Precipitation  
Precipitation 0.00 in - - ()
Sea Level Pressure  
Sea Level Pressure 30.15 in    
Wind  
Wind Speed 2 mph (SSE)    
Max Wind Speed 12 mph    
Max Gust Speed 20 mph    
Visibility 10 miles    
Events      
Averages and records for this station are not official NWS values.
T = Trace of Precipitation, MM = Missing Value Source: NWS Daily Summary

Daily Weather History Graph

Daily Weather History Graph

Search for Another Location

Airport or City:

Trip Planner

Search our weather history database for the weather conditions in past years. The results will help you decide how hot, cold, wet, or windy it might be!

Date:

Astronomy

Oct. 03, 2011 Rise Set
Actual Time 7:18 AM CDT 6:55 PM CDT
Civil Twilight 6:48 AM CDT 7:24 PM CDT
Nautical Twilight 6:14 AM CDT 7:58 PM CDT
Astronomical Twilight 5:40 AM CDT 8:32 PM CDT
Moon 2:31 PM CDT (10/3) 11:45 PM CDT (10/3)
Length of Visible Light 12h 35m
Length of Day
11h 36m
Waxing Crescent, 45% of the Moon is Illuminated
Oct 3
Waxing Crescent
Oct 3
First Quarter
Oct 11
Full
Oct 19
Last Quarter
Oct 26
New

Hourly Weather History & Observations

Time (CDT) Temp. Windchill Dew Point Humidity Pressure Visibility Wind Dir Wind Speed Gust Speed Precip Events Conditions
12:33 AM 57.2 °F - 39.2 °F 51% 30.14 in 10.0 mi SSE 3.5 mph - N/A   Clear
12:53 AM 55.4 °F - 41.0 °F 58% 30.14 in 10.0 mi Calm Calm - N/A   Clear
1:13 AM 53.6 °F - 41.0 °F 62% 30.14 in 10.0 mi Calm Calm - N/A   Clear
1:33 AM 53.6 °F - 41.0 °F 62% 30.15 in 10.0 mi Calm Calm - N/A   Clear
2:13 AM 51.8 °F - 41.0 °F 67% 30.15 in 10.0 mi Calm Calm - N/A   Clear
2:33 AM 51.8 °F - 41.0 °F 67% 30.15 in 10.0 mi Calm Calm - N/A   Clear
2:53 AM 51.8 °F - 39.2 °F 62% 30.15 in 10.0 mi Calm Calm - N/A   Clear
3:13 AM 51.8 °F - 41.0 °F 67% - 10.0 mi Calm Calm - N/A   Clear
3:33 AM 48.2 °F - 41.0 °F 76% 30.15 in 10.0 mi Calm Calm - N/A   Clear
3:53 AM 48.2 °F - 41.0 °F 76% 30.15 in 10.0 mi Calm Calm - N/A   Clear
4:13 AM 48.2 °F - 39.2 °F 71% 30.15 in 10.0 mi Calm Calm - N/A   Clear
4:33 AM 50.0 °F - 41.0 °F 71% 30.16 in 10.0 mi Calm Calm - N/A   Clear
4:53 AM 46.4 °F - 41.0 °F 81% 30.16 in 10.0 mi Calm Calm - N/A   Clear
5:13 AM 48.2 °F - 39.2 °F 71% 30.16 in 10.0 mi Calm Calm - N/A   Clear
5:33 AM 48.2 °F - 41.0 °F 76% 30.16 in 10.0 mi Calm Calm - N/A   Clear
5:53 AM 44.6 °F 43.1 °F 39.2 °F 81% 30.16 in 10.0 mi SE 3.5 mph - N/A   Clear
6:13 AM 48.2 °F - 41.0 °F 76% 30.17 in 10.0 mi Calm Calm - N/A   Clear
6:33 AM 48.2 °F - 42.8 °F 82% 30.17 in 10.0 mi Calm Calm - N/A   Clear
6:53 AM 48.2 °F - 42.8 °F 82% 30.17 in 10.0 mi Calm Calm - N/A   Clear
7:13 AM 48.2 °F - 42.8 °F 82% 30.17 in 10.0 mi Calm Calm - N/A   Clear
7:33 AM 48.2 °F - 42.8 °F 82% 30.18 in 10.0 mi Calm Calm - N/A   Clear
7:53 AM 50.0 °F - 42.8 °F 76% 30.18 in 10.0 mi Calm Calm - N/A   Clear
8:13 AM 51.8 °F - 44.6 °F 76% 30.18 in 10.0 mi SSE 3.5 mph - N/A   Clear
8:33 AM 51.8 °F - 44.6 °F 76% 30.18 in 10.0 mi Calm Calm - N/A   Clear
8:53 AM 53.6 °F - 44.6 °F 72% 30.18 in 10.0 mi Calm Calm - N/A   Clear
9:13 AM 55.4 °F - 44.6 °F 67% 30.18 in 10.0 mi Calm Calm - N/A   Clear
9:33 AM 57.2 °F - 44.6 °F 63% 30.19 in 10.0 mi Calm Calm - N/A   Clear
9:53 AM 60.8 °F - 42.8 °F 52% 30.18 in 10.0 mi South 3.5 mph - N/A   Clear
10:13 AM 62.6 °F - 41.0 °F 45% 30.19 in 10.0 mi South 3.5 mph - N/A   Clear
10:33 AM 64.4 °F - 41.0 °F 42% 30.19 in 10.0 mi South 3.5 mph - N/A   Clear
10:53 AM 68.0 °F - 39.2 °F 35% 30.18 in 10.0 mi Calm Calm - N/A   Clear
11:13 AM 69.8 °F - 39.2 °F 33% 30.18 in 10.0 mi Calm Calm - N/A   Clear
11:33 AM 71.6 °F - 39.2 °F 31% 30.18 in 10.0 mi South 3.5 mph - N/A   Clear
11:53 AM 71.6 °F - 41.0 °F 33% 30.18 in 10.0 mi SSE 4.6 mph - N/A   Clear
12:13 PM 73.4 °F - 39.2 °F 29% 30.17 in 10.0 mi SSE 5.8 mph - N/A   Clear
12:33 PM 75.2 °F - 39.2 °F 27% 30.17 in 10.0 mi SSE 9.2 mph - N/A   Clear
1:13 PM 75.2 °F - 37.4 °F 25% 30.16 in 10.0 mi SSE 8.1 mph - N/A   Clear
1:32 PM 77.0 °F - 37.4 °F 24% 30.15 in 10.0 mi SSE 10.4 mph 16.1 mph N/A   Clear
1:53 PM 77.0 °F - 35.6 °F 22% 30.15 in 10.0 mi SE 9.2 mph 19.6 mph N/A   Clear
2:13 PM 78.8 °F - 35.6 °F 21% 30.14 in 10.0 mi SSE 9.2 mph 18.4 mph N/A   Clear
2:32 PM 78.8 °F - 37.4 °F 23% 30.14 in 10.0 mi SSE 10.4 mph - N/A   Clear
2:53 PM 78.8 °F - 37.4 °F 23% 30.14 in 10.0 mi SSE 9.2 mph - N/A   Clear
3:13 PM 78.8 °F - 37.4 °F 23% 30.13 in 10.0 mi SSE 11.5 mph 16.1 mph N/A   Clear
3:32 PM 78.8 °F - 37.4 °F 23% 30.13 in 10.0 mi SSE 6.9 mph 16.1 mph N/A   Clear
3:53 PM 78.8 °F - 37.4 °F 23% 30.13 in 10.0 mi SSE 9.2 mph - N/A   Clear
4:13 PM 78.8 °F - 35.6 °F 21% 30.12 in 10.0 mi SSE 8.1 mph - N/A   Clear
4:32 PM 78.8 °F - 33.8 °F 20% 30.12 in 10.0 mi SSE 10.4 mph 17.3 mph N/A   Clear
4:53 PM 78.8 °F - 33.8 °F 20% 30.12 in 10.0 mi SSE 10.4 mph 17.3 mph N/A   Clear
5:13 PM 78.8 °F - 33.8 °F 20% 30.12 in 10.0 mi SSE 6.9 mph - N/A   Clear
5:33 PM 77.0 °F - 33.8 °F 21% 30.12 in 10.0 mi SSE 6.9 mph - N/A   Clear
5:53 PM 75.2 °F - 33.8 °F 22% 30.12 in 10.0 mi SSE 6.9 mph - N/A   Clear
6:13 PM 75.2 °F - 33.8 °F 22% 30.12 in 10.0 mi SSE 4.6 mph - N/A   Clear
6:32 PM 73.4 °F - 35.6 °F 25% 30.12 in 10.0 mi SE 5.8 mph - N/A   Clear
6:53 PM 71.6 °F - 35.6 °F 27% 30.12 in 10.0 mi SSE 3.5 mph - N/A   Clear
7:13 PM 69.8 °F - 35.6 °F 28% 30.12 in 10.0 mi Calm Calm - N/A   Clear
7:33 PM 62.6 °F - 35.6 °F 37% 30.13 in 10.0 mi SSE 3.5 mph - N/A   Clear
8:13 PM 60.8 °F - 35.6 °F 39% 30.13 in 10.0 mi SE 4.6 mph - N/A   Clear
8:33 PM 62.6 °F - 35.6 °F 37% 30.13 in 10.0 mi SSE 3.5 mph - N/A   Clear
8:53 PM 60.8 °F - 35.6 °F 39% 30.13 in 10.0 mi Calm Calm - N/A   Clear
9:12 PM 60.8 °F - 37.4 °F 42% 30.13 in 10.0 mi SSE 3.5 mph - N/A   Clear
9:33 PM 60.8 °F - 35.6 °F 39% 30.13 in 10.0 mi SSE 4.6 mph - N/A   Clear
9:53 PM 60.8 °F - 35.6 °F 39% 30.13 in 10.0 mi SSE 4.6 mph - N/A   Clear
10:13 PM 59.0 °F - 35.6 °F 42% 30.14 in 10.0 mi SSE 3.5 mph - N/A   Clear
10:33 PM 60.8 °F - 35.6 °F 39% 30.14 in 10.0 mi Calm Calm - N/A   Clear
10:53 PM 57.2 °F - 35.6 °F 44% 30.14 in 10.0 mi SSE 4.6 mph - N/A   Clear
11:12 PM 60.8 °F - 35.6 °F 39% 30.14 in 10.0 mi SSE 5.8 mph - N/A   Clear
11:33 PM 62.6 °F - 35.6 °F 37% 30.14 in 10.0 mi SSE 4.6 mph - N/A   Clear
11:53 PM 60.8 °F - 35.6 °F 39% 30.14 in 10.0 mi SSE 4.6 mph - N/A   Clear